[[{"header":{"parameterUnit":"m.s-1","parameterCategory":1,"la1":30.2991,"la2":30.254,"lo1":-89.0895,"lo2":-89.0444,"dy":0.0017,"dx":0.0017,"nx":28,"ny":28,"refTime":"2026-02-25T09:00:00:Z","depth":0,"parameterNumber":2,"parameterNumberName":"U-component_of_WINDS"},"data":[0,0,0,0,0,0,0,0,0,0,0,0,0,0,0,0,0,0,0,0,0,0,0,0,0,0,0,0,0,0,0,0,0,0,0,0,0,0,0,0,0,0,0,0,0,0,0,0,0,0,0,0,0,0,0,0,0,0,2.1212,2.1215,0,2.1418,2.142,2.1423,2.1457,2.1456,2.1454,2.1452,2.1664,2.1671,2.1679,0,0,0,0,0,0,0,0,0,0,0,0,0,2.0851,2.0857,2.1212,2.1215,2.1217,2.1417,2.142,2.1423,2.1458,2.1456,2.1453,2.1451,2.1662,2.1671,2.1679,0,0,0,0,0,0,0,0,0,0,0,0,0,2.1027,2.0859,2.1212,2.1259,2.1265,2.1417,2.142,2.1424,2.1458,2.1455,2.1453,2.145,2.1659,2.167,2.168,2.1801,0,0,2.1714,2.1719,0,0,0,0,0,0,0,0,2.1017,2.104,2.1249,2.1256,2.1263,2.1409,2.1371,2.155,2.1459,2.1385,2.1452,2.1449,2.1582,2.1599,2.1643,2.1811,2.182,2.1715,2.1721,2.1726,2.1729,0,0,0,0,0,0,0,2.1005,2.1032,2.1294,2.1252,2.1261,2.127,2.1292,2.1405,2.1496,2.1391,2.1394,2.1418,2.1585,2.1633,2.1648,2.1823,2.1715,2.1724,2.1731,2.1735,2.2098,2.2101,0,0,0,0,0,0,2.0984,2.1021,2.1287,2.13,2.1131,2.1278,2.1303,2.1365,2.1494,2.1512,2.142,2.1419,2.1615,2.1636,2.1656,2.1804,2.1726,2.1736,2.1743,2.2095,2.2098,2.2102,0,0,0,0,0,0,2.0976,2.1007,2.1279,2.1161,2.1197,2.1287,2.1357,2.137,2.1418,2.1516,2.1533,2.1452,2.1614,2.1641,2.1764,2.1812,2.1741,2.1751,2.2091,2.2096,2.21,2.2101,0,0,0,0,0,0,2.0965,2.1004,2.1051,2.1162,2.1203,2.1383,2.136,2.1376,2.1437,2.1437,2.155,2.1567,2.1614,2.1747,2.1775,2.1825,2.176,2.2087,2.2093,2.2099,2.2097,2.2105,2.2112,0,0,0,0,0,2.0952,2.1043,2.1053,2.1085,2.1263,2.1386,2.1409,2.1461,2.144,2.1488,2.1551,2.1563,2.1802,2.176,2.1791,2.1846,2.2084,2.2091,2.2098,2.2094,2.2103,2.2112,0,0,0,0,0,0,2.0936,2.1059,2.1071,2.12,2.1282,2.1391,2.1452,2.147,2.1559,2.1556,2.1618,2.1643,2.1762,2.1817,2.1767,2.1968,2.1942,2.1955,2.1928,2.1938,2.1945,2.1929,2.1769,0,0,0,0,0,2.0947,2.1036,2.1139,2.1244,2.1284,2.1361,2.1417,2.145,2.1537,2.1572,2.1644,2.1729,2.1823,2.1884,2.1976,2.2106,2.213,2.2159,2.2166,2.2171,2.2182,2.2253,2.2267,2.2124,2.2124,2.2124,0,0,2.0971,2.1049,2.1102,2.1242,2.1309,2.14,2.139,2.1487,2.1555,2.1587,2.1707,2.1763,2.1862,2.1988,2.2047,2.2037,2.2227,2.218,2.2184,2.2192,2.2262,2.2275,2.2287,2.2129,2.2128,2.2128,0,0,2.1061,2.113,2.1224,2.1291,2.1393,2.1444,2.1466,2.1573,2.1611,2.1732,2.1758,2.184,2.2002,2.207,2.2126,2.2242,2.2257,2.2271,2.2309,2.2378,2.2389,2.2399,2.2439,2.2453,2.2281,2.2281,2.2281,0,2.1079,2.1216,2.127,2.1366,2.1426,2.1459,2.1554,2.1617,2.1744,2.1785,2.1771,2.1974,2.2043,2.2185,2.2213,2.2258,2.2285,2.2257,2.2383,2.2394,2.2404,2.2443,2.2458,2.2282,2.2282,2.2282,2.2282,0,2.1232,2.1327,2.1391,2.1511,2.1579,2.1674,2.1742,2.1804,2.1831,2.1883,2.2006,2.209,2.2199,2.2236,2.2264,2.2382,2.2372,2.237,2.2345,2.2417,2.2455,2.247,2.2283,2.2283,2.2283,2.2283,0,0,2.1316,2.1465,2.1487,2.1542,2.1656,2.1731,2.1828,2.1933,2.1985,2.2072,2.2153,2.2289,2.2287,2.2351,2.2387,2.2448,2.2532,2.2438,2.2442,2.2451,2.2666,2.2666,2.2682,2.2543,2.2546,2.2549,2.2657,0,2.1419,2.1591,2.1642,2.1786,2.1874,2.1906,2.199,2.207,2.2121,2.2203,2.2261,2.2355,2.2346,2.2385,2.2446,2.2509,2.2576,2.2502,2.2619,2.2623,2.2592,2.2702,2.2702,2.28,2.2673,2.2675,2.2677,0,2.1561,2.1649,2.1802,2.1904,2.1943,2.2017,2.2118,2.2196,2.2287,2.232,2.2391,2.2422,2.2523,2.2493,2.2634,2.2582,2.2634,2.2672,2.2677,2.2689,2.2653,2.2715,2.2833,2.2847,2.2701,2.2699,2.2697,0,2.1605,2.1762,2.1873,2.1919,2.2042,2.2093,2.2147,2.2235,2.2295,2.2383,2.2423,2.2522,2.2576,2.2653,2.271,2.2683,2.2845,2.282,2.2875,2.2873,2.2906,2.2903,2.3033,2.2942,2.2942,2.2942,2.2941,0,2.1713,2.1805,2.1894,2.1963,2.2066,2.2124,2.2226,2.2281,2.2359,2.2439,2.2474,2.2548,2.2619,2.2703,2.2748,2.2857,2.2882,2.2911,2.2922,2.2907,2.2903,2.294,2.2934,2.2946,2.2945,2.2944,2.2943,0,2.1779,2.1843,2.1966,2.2072,2.21,2.2172,2.2263,2.233,2.2383,2.2483,2.251,2.2593,2.2693,2.2758,2.2886,2.2916,2.3035,2.3045,2.3004,2.3008,2.3059,2.3052,2.3216,2.3239,2.3134,2.3135,2.3136,0,2.1842,2.1914,2.2027,2.2082,2.2136,2.2225,2.2286,2.2346,2.2409,2.2517,2.2571,2.2674,2.2758,2.2917,2.2989,2.3087,2.3098,2.3149,2.3113,2.3096,2.3097,2.3092,2.3098,2.3154,2.3155,2.3155,2.3156,0,2.1948,2.1976,2.2063,2.216,2.2232,2.2312,2.2392,2.2436,2.251,2.2578,2.268,2.2746,2.2876,2.2977,2.3082,2.3138,2.3159,2.3167,2.3184,2.3169,2.3142,2.3156,2.3018,2.3162,2.3162,2.3161,2.3161,2.3161,2.2014,2.2078,2.2167,2.2262,2.2329,2.2403,2.2471,2.2532,2.2618,2.2728,2.2759,2.2865,2.2954,2.3096,2.3154,2.3238,2.3232,2.3258,2.3264,2.3269,2.3269,2.313,2.3258,2.3258,2.3258,2.3258,2.3258,0,2.212,2.2179,2.2266,2.2376,2.2451,2.2464,2.2554,2.2615,2.2708,2.2789,2.2871,2.2988,2.3087,2.3166,2.3267,2.3319,2.3332,2.3344,2.3339,2.3352,2.3269,2.3243,2.3332,2.3332,2.3332,2.3332,2.3332,2.3332,2.2184,2.2292,2.2331,2.2473,2.2532,2.2636,2.2685,2.2753,2.2818,2.2947,2.3028,2.3079,2.3159,2.3266,2.3357,2.3378,2.3413,2.3422,2.3445,2.3366,2.3358,2.335,2.3325,2.343,2.343,2.352,2.3521,2.3522]},{"header":{"parameterUnit":"m.s-1","parameterCategory":1,"la1":30.2991,"la2":30.254,"lo1":-89.0895,"lo2":-89.0444,"dy":0.0017,"dx":0.0017,"nx":28,"ny":28,"refTime":"2026-02-25T09:00:00:Z","depth":0,"parameterNumber":3,"parameterNumberName":"V-component_of_WINDS"},"data":[0,0,0,0,0,0,0,0,0,0,0,0,0,0,0,0,0,0,0,0,0,0,0,0,0,0,0,0,0,0,0,0,0,0,0,0,0,0,0,0,0,0,0,0,0,0,0,0,0,0,0,0,0,0,0,0,0,0,4.927,4.9272,0,4.9495,4.9497,4.95,4.9514,4.9511,4.9509,4.9507,4.9736,4.9744,4.9753,0,0,0,0,0,0,0,0,0,0,0,0,0,4.8849,4.8856,4.9269,4.9272,4.9275,4.9494,4.9498,4.9501,4.9514,4.9511,4.9508,4.9505,4.9733,4.9743,4.9754,0,0,0,0,0,0,0,0,0,0,0,0,0,4.9048,4.8859,4.9269,4.9309,4.9314,4.9494,4.9498,4.9501,4.9515,4.9511,4.9507,4.9504,4.973,4.9742,4.9755,4.991,0,0,4.9794,4.9799,0,0,0,0,0,0,0,0,4.9037,4.9064,4.93,4.9306,4.9313,4.9472,4.9433,4.9638,4.9516,4.9439,4.9506,4.9502,4.9651,4.967,4.9721,4.9921,4.9931,4.9795,4.9803,4.9808,4.9812,0,0,0,0,0,0,0,4.9023,4.9054,4.9359,4.9303,4.9311,4.9314,4.9338,4.9472,4.9564,4.9445,4.9447,4.9473,4.9654,4.9709,4.9726,4.9934,4.9795,4.9806,4.9814,4.9819,5.027,5.0274,0,0,0,0,0,0,4.9002,4.9043,4.9351,4.9365,4.9163,4.9325,4.9352,4.9425,4.9562,4.958,4.9476,4.9473,4.9689,4.9712,4.9735,4.9924,4.9808,4.982,4.9827,5.0266,5.0271,5.0276,0,0,0,0,0,0,4.8993,4.9029,4.9342,4.9205,4.9245,4.9336,4.9418,4.9432,4.9486,4.9586,4.9602,4.9515,4.9687,4.9717,4.9866,4.9932,4.9826,4.9837,5.026,5.0267,5.0273,5.0304,0,0,0,0,0,0,4.8981,4.9026,4.9087,4.9206,4.9252,4.9471,4.9422,4.9439,4.9508,4.9506,4.9627,4.9643,4.9686,4.9847,4.9878,4.9947,4.9847,5.0255,5.0263,5.0271,5.0297,5.0311,5.0322,0,0,0,0,0,4.8966,4.9087,4.909,4.9127,4.933,4.9475,4.9501,4.9548,4.9513,4.9574,4.9638,4.9639,4.992,4.9862,4.9898,4.9972,5.0251,5.0261,5.0271,5.0292,5.0308,5.0322,0,0,0,0,0,0,4.8973,4.9103,4.9108,4.9271,4.9362,4.9477,4.9555,4.9564,4.9666,4.966,4.9714,4.9741,4.9888,4.9945,4.9878,5.0128,5.0081,5.0099,5.0085,5.0101,5.0113,5.0096,4.9858,0,0,0,0,0,4.8994,4.9101,4.9209,4.9342,4.9388,4.9464,4.9528,4.9557,4.9653,4.9691,4.9766,4.9858,4.9967,5.0037,5.0143,5.0306,5.0331,5.0374,5.0386,5.0396,5.041,5.0498,5.0518,5.0308,5.0308,5.0307,0,0,4.9038,4.9122,4.9187,4.9346,4.9419,4.9528,4.9496,4.9613,4.9694,4.9709,4.9854,4.9912,5.0018,5.0174,5.0247,5.0226,5.0474,5.0408,5.0415,5.0424,5.051,5.053,5.0548,5.0314,5.0313,5.0312,0,0,4.9173,4.9248,4.9367,4.9441,4.9552,4.9602,4.963,4.9744,4.9782,4.9929,4.9942,5.0038,5.0225,5.03,5.0362,5.0523,5.0528,5.0556,5.0621,5.0706,5.0722,5.0737,5.0793,5.0813,5.057,5.057,5.0571,0,4.9213,4.9379,4.9426,4.9543,4.9612,4.963,4.975,4.9819,4.9959,5.0006,4.9981,5.0214,5.0287,5.046,5.0499,5.055,5.0582,5.0543,5.0716,5.0732,5.0746,5.08,5.0821,5.0573,5.0573,5.0573,5.0572,0,4.9421,4.9536,4.9618,4.9752,4.9831,4.9948,5.0013,5.0086,5.0107,5.0159,5.0306,5.0395,5.0518,5.0561,5.0583,5.0736,5.072,5.0705,5.0659,5.0768,5.082,5.0841,5.0577,5.0576,5.0575,5.0575,0,0,4.9569,4.9727,4.9756,4.9816,4.994,5.0029,5.0146,5.0266,5.0327,5.0423,5.0522,5.0678,5.0665,5.0735,5.0766,5.0841,5.0961,5.0817,5.082,5.0839,5.1133,5.1143,5.1166,5.0964,5.0968,5.0972,5.1124,0,4.9716,4.9926,4.9972,5.0153,5.0258,5.0275,5.0377,5.0463,5.0514,5.061,5.0666,5.0776,5.075,5.0793,5.0868,5.093,5.102,5.092,5.1056,5.106,5.1028,5.1194,5.1205,5.1344,5.1145,5.1148,5.1151,0,4.9917,5.0017,5.0208,5.0315,5.0361,5.0452,5.0565,5.0657,5.0754,5.0786,5.0864,5.0886,5.1007,5.0956,5.1123,5.1053,5.1111,5.115,5.1157,5.1171,5.1111,5.1211,5.139,5.141,5.1183,5.118,5.1178,0,5.0003,5.0185,5.0323,5.0374,5.0503,5.0567,5.0623,5.0717,5.0785,5.0884,5.0928,5.104,5.11,5.1185,5.1236,5.1194,5.1399,5.1352,5.1427,5.1426,5.1469,5.1466,5.1659,5.1508,5.1508,5.1508,5.1507,0,5.0163,5.0279,5.0363,5.0447,5.0577,5.0627,5.0754,5.081,5.0893,5.0988,5.101,5.1098,5.116,5.1257,5.1298,5.1429,5.1456,5.1484,5.1494,5.1482,5.1478,5.1521,5.1512,5.1513,5.1512,5.1511,5.151,0,5.0282,5.0343,5.0493,5.0603,5.0633,5.0723,5.0817,5.0899,5.0949,5.1069,5.1099,5.1179,5.1294,5.1353,5.1496,5.1523,5.1671,5.1675,5.1638,5.1641,5.1713,5.1705,5.194,5.1972,5.18,5.1802,5.1803,0,5.0379,5.0469,5.0587,5.0652,5.071,5.0815,5.0885,5.0937,5.1009,5.1125,5.1193,5.1308,5.1404,5.1586,5.1656,5.1765,5.1771,5.1846,5.1788,5.1773,5.1771,5.1765,5.1773,5.1856,5.1858,5.1859,5.186,0,5.0546,5.0571,5.0671,5.0781,5.0864,5.0953,5.1041,5.1093,5.116,5.1239,5.1356,5.143,5.1575,5.169,5.1804,5.1861,5.1872,5.1878,5.1901,5.189,5.1864,5.1877,5.1665,5.1872,5.1871,5.187,5.1869,5.1869,5.0656,5.0735,5.0831,5.0941,5.1012,5.1094,5.1175,5.1236,5.1335,5.1457,5.1482,5.1606,5.1699,5.1853,5.1914,5.2011,5.1995,5.2029,5.2037,5.2045,5.2047,5.1849,5.2032,5.2032,5.2032,5.2031,5.2031,0,5.0822,5.0884,5.0985,5.1107,5.1193,5.1195,5.1292,5.1364,5.1472,5.1558,5.1651,5.1785,5.1896,5.1974,5.2086,5.2148,5.2156,5.2176,5.2171,5.2184,5.2056,5.2024,5.2168,5.2168,5.2168,5.2168,5.2168,5.2168,5.0919,5.1053,5.1089,5.1258,5.1319,5.144,5.1495,5.157,5.1638,5.1787,5.1878,5.1928,5.2011,5.2129,5.223,5.225,5.229,5.2309,5.2329,5.2208,5.2193,5.2179,5.215,5.2318,5.2318,5.245,5.2451,5.2452]}]]